Location: Newark
(38.6492°N, 88.9193°W)
Time: 16:01:02
(UTC+00:00)

Hubble Space Telescope - Visible Passes

Search period start: 15 November 2019 00:00
Search period end: 25 November 2019 00:00
Orbit: 536 x 540 km, 28.5° (Epoch: 14 November)

Date Brightness Start Highest point End Pass type
(mag) Time Alt. Az. Time Alt. Az. Time Alt. Az.
18 Nov 3.4 00:49:40 10° S 00:49:56 10° S 00:49:56 10° S visible
19 Nov 3.1 00:38:24 10° SSW 00:40:00 13° S 00:40:00 13° S visible
20 Nov 2.9 00:27:19 10° SSW 00:29:45 15° SSE 00:30:01 15° SSE visible
21 Nov 2.8 00:16:23 10° SSW 00:19:03 17° S 00:20:03 15° SSE visible
22 Nov 2.8 00:05:31 10° SW 00:08:21 18° S 00:10:04 14° SE visible
22 Nov 2.8 23:54:43 10° SW 23:57:40 19° S 00:00:06 12° SE visible
23 Nov 3.9 01:35:26 10° SW 01:35:26 10° SW 01:35:26 10° SW visible
23 Nov 2.8 23:43:57 10° SW 23:46:58 20° S 23:49:58 10° SE visible
24 Nov 3.7 01:24:55 10° SW 01:25:30 12° SW 01:25:30 12° SW visible
24 Nov 2.9 23:33:15 10° SW 23:36:16 20° S 23:39:18 10° SE visible
